Tracking 31027 objects as of 19-Jul-2025
HD Live streaming from Space Station
objects crossing your sky now

STARLINK-6194

Track STARLINK-6194 now!
10-day predictions
STARLINK-6194 is classified as:


NORAD ID: 57077
Int'l Code: 2023-088AF
Perigee: 565.3 km
Apogee: 567.2 km
Inclination: 43.0 °
Period: 95.8 minutes
Semi major axis: 6937 km
RCS: Unknown
Launch date: June 22, 2023
Source: United States (US)
Launch site: AIR FORCE WESTERN TEST RANGE (AFWTR)
Your satellite tracking list
PRISMA
Track 1 satellite(s)




NASA's NSSDC Master Catalog

Two Line Element Set (TLE):
1 57077U 23088AF  25199.60642077 -.00001193  00000-0 -73251-4 0  9993
2 57077  43.0038 286.7452 0001312 270.9088  89.1604 15.02527845115476
Source of the keplerian elements: AFSPC